Probability
0 0 0 0 1 2 2 1 0 0 0 0 0 0 0 0 0 0 0 0 0 0 0 0 0 0 0 0 0 0 1 2 1 0 0 0 0 0 0 0 0 0 0
0 0 0 0 1 1 1 0 0 0 0 0 0 0 0 0 0 0 0 0 0 0 0 0 0 0 1 1 0 0 1 1 1 0 0 0 0 0 0 0 0 0 0
0 0 0 0 0 0 0 0 0 0 0 0 0 0 0 0 0 0 0 0 0 0 0 0 0 1 2 2 1 0 0 0 0 0 0 0 0 0 0 0 0 0 0
0 0 0 0 0 0 0 0 0 0 0 0 0 0 0 0 0 0 0 0 0 0 1 1 0 1 2 3 2 1 1 0 0 0 0 0 0 0 0 0 0 0 0
0 0 0 0 0 0 0 0 1 0 0 0 0 0 0 0 0 0 0 0 0 0 1 1 1 1 2 3 3 3 2 1 0 0 0 0 0 0 0 0 0 0 0
0 0 0 0 0 0 0 0 0 0 0 0 0 0 0 0 0 0 0 0 0 0 0 1 1 1 2 3 3 3 3 2 1 0 0 0 0 0 0 0 0 0 0
0 0 0 0 0 0 0 0 0 0 0 0 0 0 0 0 0 0 0 0 0 0 0 0 1 1 2 3 3 3 3 2 1 0 0 0 0 0 0 0 0 0 0
0 0 0 0 0 0 0 0 0 0 0 0 0 0 0 0 0 0 0 0 0 0 0 0 0 1 1 2 3 3 3 2 1 0 0 0 0 0 0 0 0 0 0
0 0 0 0 0 0 0 0 0 0 0 0 0 0 0 0 0 0 0 0 0 0 0 0 0 0 0 1 2 3 3 3 2 2 1 0 0 0 0 0 0 0 0
0 0 0 0 0 0 0 0 0 0 0 0 0 0 0 0 0 0 0 0 0 0 0 0 0 0 0 0 1 3 3 3 3 3 2 1 0 0 0 0 0 0 0
0 0 0 0 0 0 0 0 0 0 0 0 0 0 0 1 1 0 0 0 0 0 0 0 0 0 0 0 1 2 3 3 3 3 2 1 0 0 0 0 0 0 0
0 0 0 0 0 0 0 0 0 0 0 0 0 0 1 2 2 1 0 0 0 0 0 0 0 0 0 0 1 2 3 3 2 2 2 1 0 0 0 0 0 0 0
0 0 0 0 0 0 0 0 0 0 0 0 0 0 1 2 3 2 1 0 0 0 0 0 0 0 0 1 2 3 3 2 1 1 1 0 0 0 0 0 0 0 0
0 0 0 0 1 0 0 0 0 0 0 0 0 0 1 2 3 2 1 0 0 0 0 0 1 1 1 1 3 3 3 2 1 0 0 0 0 0 0 0 0 0 0
0 0 0 0 0 0 0 0 0 0 0 0 0 0 0 1 2 2 1 0 0 0 0 0 1 2 3 3 3 3 3 2 1 0 0 0 0 0 0 0 0 0 0
0 0 0 0 0 0 0 0 0 0 0 0 0 0 0 0 1 1 0 0 0 0 0 0 0 2 4 3 2 2 2 1 0 0 0 0 0 0 0 0 0 0 0
0 0 0 0 0 0 0 0 0 0 0 0 0 0 0 0 0 0 0 0 0 0 0 0 0 2 3 2 0 1 1 0 0 0 0 0 0 0 0 0 0 0 0
0 0 0 0 0 0 0 0 0 0 0 0 0 0 0 0 0 0 0 0 0 0 0 0 0 1 1 0 0 0 0 0 0 0 0 0 0 0 0 0 0 0 0
0 0 0 0 0 0 0 0 0 0 0 0 0 0 0 0 0 0 0 0 0 0 0 0 0 0 0 0 0 0 0 0 0 0 0 0 0 0 0 0 0 0 0
0 0 0 0 0 1 1 0 0 0 0 0 0 0 0 0 0 0 0 0 0 0 0 0 0 0 0 0 0 0 0 0 0 0 0 0 0 0 0 0 0 0 0
0 0 0 0 1 2 3 1 0 0 0 0 0 0 0 0 0 0 0 0 0 0 0 0 0 0 0 0 0 0 0 0 0 0 0 0 0 0 0 0 0 0 0
0 0 0 1 2 3 3 2 1 0 0 0 0 0 0 0 0 0 0 0 0 0 0 0 0 0 0 0 0 0 0 0 0 0 0 0 0 0 0 0 0 0 0
0 0 0 1 2 3 3 3 2 1 0 0 0 0 0 0 0 0 0 0 0 0 0 0 0 0 0 0 0 0 0 0 0 0 0 0 0 0 0 0 0 0 0
0 0 0 1 2 3 3 3 3 2 1 1 0 0 0 0 0 0 0 0 0 0 0 0 0 0 0 0 0 0 0 0 0 0 0 0 0 0 0 0 0 0 0
0 0 0 0 1 1 3 3 3 3 3 2 1 0 0 0 0 0 0 0 0 0 0 0 0 0 0 0 0 0 0 0 0 0 0 0 0 0 0 0 0 0 0
0 0 0 0 0 1 2 3 3 3 3 3 2 1 0 0 0 0 0 0 0 0 0 0 0 0 0 0 0 0 0 0 0 0 0 0 0 0 0 0 0 0 0
Wind_Speed
4 4 4 4 6 7 8 8 8 8 9 9 9 9 9 9 9 8 9 9 9 10 10 11 11 11 11 11 11 11 12 12 11 11 10 11 10 10 10 9 7 8 11
5 5 5 5 6 8 8 8 8 8 9 9 9 9 9 9 9 9 9 9 9 10 10 11 11 11 11 11 11 11 11 11 10 9 8 9 10 10 11 11 10 8 10
6 5 5 5 7 8 8 8 9 8 8 9 9 9 8 9 9 9 9 9 9 10 10 10 10 11 11 11 11 11 10 10 9 7 4 6 9 10 10 11 10 10 10
6 5 5 6 6 8 8 8 8 8 9 9 9 9 8 8 8 9 9 9 9 10 10 10 10 10 10 10 10 10 10 10 8 4 5 6 7 10 10 10 10 10 9
6 5 6 6 7 8 8 8 8 9 9 9 9 9 8 8 8 8 8 9 9 9 9 10 10 10 10 10 10 10 10 9 6 5 6 7 7 9 10 10 10 10 9
6 5 6 6 7 7 8 8 9 9 9 9 9 9 8 8 8 8 8 8 9 9 9 9 10 9 9 9 10 10 9 8 4 6 7 6 6 8 9 9 9 8 8
6 5 6 7 7 7 7 8 8 8 8 9 9 9 8 8 8 8 8 8 9 9 9 9 10 9 9 9 9 9 8 6 5 6 6 6 7 8 8 8 8 8 8
5 5 5 6 6 6 6 7 7 8 8 9 9 9 8 8 8 8 8 8 8 8 9 9 9 9 9 9 9 9 8 5 5 5 5 6 8 7 8 8 8 7 7
4 4 4 5 5 6 6 7 7 7 8 8 8 9 8 8 8 8 8 8 8 8 8 8 8 8 8 8 8 8 8 6 4 4 5 4 7 7 7 7 7 7 7
3 3 3 4 4 4 5 6 7 7 7 7 8 8 8 7 7 8 8 8 8 7 8 7 7 7 8 7 7 7 6 3 4 4 3 5 6 6 6 6 6 6 6
2 2 2 3 3 3 4 4 5 5 6 5 5 6 5 4 4 5 7 8 8 8 7 7 6 6 6 6 6 6 3 2 3 3 3 6 5 5 5 5 6 6 6
4 3 2 2 2 3 3 3 3 3 3 2 2 3 2 3 3 4 6 7 7 7 6 6 5 4 2 2 3 3 2 3 2 2 4 7 5 5 4 4 4 4 4
4 3 3 2 2 2 2 2 2 1 2 2 2 2 2 2 2 2 2 3 3 3 3 3 2 2 2 2 1 2 2 2 1 2 4 6 5 4 4 4 3 3 4
5 4 3 3 3 2 2 2 2 2 1 1 1 1 2 1 1 2 1 1 1 1 1 1 1 2 2 2 2 2 2 1 1 2 3 6 5 4 4 3 3 3 3
5 5 4 4 3 3 2 2 2 2 2 2 1 1 1 1 1 1 1 1 1 1 1 1 1 1 1 2 2 2 2 2 2 2 2 5 6 5 4 3 2 2 3
5 5 5 5 4 4 3 2 2 2 2 2 1 1 1 1 1 1 1 1 1 0 1 0 1 1 1 1 2 2 2 2 2 2 2 3 5 5 4 4 3 2 3
5 5 6 5 5 4 4 3 2 2 2 1 1 2 2 1 2 2 2 1 1 0 0 0 0 0 0 1 1 2 2 2 2 2 3 2 2 4 5 5 4 3 3
5 5 6 5 5 5 4 3 2 2 2 1 1 2 2 2 2 2 2 1 1 1 0 0 0 0 1 1 1 1 2 1 2 3 3 3 3 3 3 5 6 5 4
6 5 5 6 6 6 5 4 3 2 2 1 1 1 2 2 3 2 2 2 1 1 1 0 0 1 1 1 1 2 2 2 2 2 2 3 3 3 3 4 5 5 5
5 5 5 4 6 6 4 3 3 2 2 1 1 1 2 2 2 2 2 2 2 1 1 1 1 1 1 1 1 1 2 1 1 2 2 2 3 3 3 3 3 3 4
5 5 5 5 5 5 4 4 3 3 2 2 1 1 1 2 2 2 2 2 2 2 2 1 1 2 1 1 0 1 1 0 1 2 2 2 3 3 3 3 3 3 2
5 5 5 6 6 6 5 4 3 3 2 2 1 1 1 2 2 2 3 2 2 2 2 2 2 1 1 0 1 1 1 1 0 1 1 2 3 2 3 3 3 3 3
5 6 5 6 6 6 6 4 3 3 2 2 2 2 2 2 2 2 3 3 3 2 2 3 3 3 1 1 1 2 1 2 2 1 1 2 2 3 3 3 3 4 4
5 5 5 5 5 5 6 6 6 4 4 3 2 2 2 2 2 2 3 3 3 2 2 3 3 2 2 1 1 1 2 2 2 2 1 2 3 4 4 3 3 3 3
4 4 5 5 5 5 5 6 6 5 3 2 2 2 2 2 2 2 2 2 2 2 3 3 3 3 2 2 2 1 1 2 3 3 4 3 3 3 3 4 3 3 4
3 4 4 5 5 5 5 5 6 6 5 4 3 3 2 1 1 2 2 2 2 2 2 2 2 3 2 3 2 2 2 2 2 3 4 5 5 4 4 4 4 3 3
Wind_Direction
149 144 127 119 110 103 100 98 93 89 88 85 82 79 77 73 74 74 73 75 76 76 76 75 75 74 71 71 70 70 67 63 64 66 67 68 71 70 66 64 71 74 71
140 142 128 121 111 103 101 99 95 93 91 89 85 81 79 77 75 74 73 75 75 75 74 73 72 72 71 71 70 70 68 63 63 61 65 77 73 73 71 65 62 69 72
134 136 135 119 112 105 103 101 98 95 93 90 87 85 82 80 77 75 74 73 73 73 74 73 71 71 71 71 71 70 67 64 61 57 60 76 77 73 73 70 68 70 68
136 135 129 108 110 107 104 101 99 97 94 92 89 88 85 81 78 76 76 73 74 73 72 73 73 72 71 72 73 71 69 66 60 51 69 68 71 70 71 70 68 69 68
135 132 121 107 104 107 106 102 98 96 94 92 90 88 86 83 79 77 77 75 77 78 76 74 74 72 70 72 72 73 70 66 58 66 71 67 68 69 68 68 67 66 66
133 130 121 108 100 102 103 100 97 95 93 90 87 85 84 84 81 78 77 76 75 78 79 76 73 72 70 71 72 73 70 63 67 67 65 65 68 70 68 68 67 68 67
133 124 118 102 100 98 104 100 96 96 92 89 86 81 79 83 84 81 79 78 77 76 77 78 75 72 71 73 72 71 67 56 64 68 63 60 62 65 66 65 65 66 67
131 119 114 96 95 95 100 100 96 95 92 89 85 81 77 76 81 80 78 80 79 78 75 76 76 72 71 71 71 67 60 50 71 68 65 64 55 60 65 64 63 62 63
127 123 119 116 108 96 91 93 92 90 90 89 85 79 73 70 71 69 67 71 75 76 75 73 76 72 69 70 70 64 58 42 62 65 61 58 47 52 60 59 58 60 61
134 132 127 121 118 118 110 95 91 90 90 90 84 80 74 68 69 66 65 64 71 74 73 71 73 74 69 67 64 60 54 51 61 63 55 51 43 50 56 55 53 55 58
150 143 138 136 132 126 124 110 106 97 91 97 96 89 92 92 86 78 67 61 63 66 69 68 65 71 72 71 62 57 55 54 58 50 49 41 41 47 54 55 56 56 56
188 179 163 170 156 150 141 134 130 122 114 114 115 116 105 95 80 74 69 62 61 60 65 63 57 63 67 77 71 64 62 52 50 47 42 35 32 35 42 45 48 49 51
195 189 188 186 173 168 157 145 139 131 126 125 117 118 109 99 96 88 82 76 72 65 64 61 58 47 52 52 56 57 49 50 44 41 38 28 19 20 24 29 35 45 53
197 199 192 185 180 178 169 157 155 155 151 144 131 135 131 127 121 104 88 74 68 61 60 48 50 54 57 54 53 58 53 43 35 24 29 20 9 8 12 24 36 39 35
203 202 194 190 183 180 176 169 170 168 167 151 153 153 155 156 144 122 106 93 72 58 70 63 45 54 61 60 52 51 47 41 27 14 16 22 7 2 5 15 24 31 22
213 204 196 193 189 181 185 179 177 173 160 165 176 164 174 176 157 152 139 118 92 69 36 45 37 26 59 58 53 44 38 30 27 12 357 17 20 9 3 0 7 9 5
216 210 198 195 189 187 189 183 177 175 170 173 180 178 182 177 170 164 153 140 110 104 119 100 48 24 77 68 49 35 26 20 7 2 352 349 357 15 13 0 354 348 342
214 210 204 189 189 188 190 180 176 182 172 173 189 188 183 175 175 169 158 150 144 156 166 269 317 359 47 33 19 11 1 1 3 358 350 352 349 349 9 11 360 349 340
215 208 201 194 189 186 185 177 172 177 165 170 193 202 186 179 181 180 165 159 172 168 147 125 39 25 44 27 21 6 351 355 0 2 352 355 1 354 350 8 5 358 347
213 209 198 193 191 180 177 170 167 168 166 180 199 205 189 184 187 180 169 168 171 159 141 128 99 75 49 31 21 356 349 347 5 5 353 0 10 359 352 353 350 356 344
209 204 199 191 188 180 176 178 180 186 183 186 195 204 196 176 183 186 170 163 172 170 167 162 140 112 87 36 10 332 316 354 22 15 358 351 359 353 350 348 341 337 333
206 204 201 197 189 189 188 178 180 178 180 186 180 193 207 186 179 178 177 171 178 178 174 173 168 164 145 276 296 278 283 231 140 317 328 333 330 339 339 336 332 326 322
209 206 197 196 192 189 186 169 155 159 153 170 196 202 216 203 176 174 183 182 181 190 191 195 195 190 189 192 305 288 275 292 317 246 283 297 313 316 312 317 317 316 315
213 201 197 194 192 185 181 181 177 183 188 193 195 193 190 188 181 185 188 187 187 196 202 201 203 209 206 207 212 280 306 318 288 291 265 276 297 295 297 302 298 296 298
204 194 189 188 187 183 181 189 190 195 193 180 178 180 176 175 185 183 185 184 191 199 205 204 192 198 213 220 210 210 228 257 263 272 285 298 296 286 291 288 287 284 290
189 180 177 179 182 180 178 186 195 196 190 178 182 183 179 175 174 179 187 191 202 204 204 204 200 204 216 220 216 216 224 235 242 255 272 289 293 292 292 281 278 280 287